CZ-6A DEB, 61352

Orbit data source: Space-Track

CZ-6A DEB, 61352 is space debris in LEO originally from a launch on Tue, 06 Aug 2024 UTC launched from the Taiyaun Space Center, China (TSC). Debris objects in space refer to the collection of defunct objects orbiting the Earth. Examples of debris include non-operational satellites, rocket bodies, and fragments generated from explosions, collisions, or faulty payload assembly.

Loading next visibility...
Identifier
61352, 2024-140VR
Orbit
LEO
Country
Flag of CNCN / PRC
Related business
Manufacturer
SAST
Mission
Spacecraft
Bus & Motor
Unknown
Mass
Unknown
Launch date (UTC)
2024-08-06 (2 years ago)
Launch vehicle
Unknown
Launch site
Taiyaun Space Center, China (TSC)
Object type
Payload
Rocket body
Debris
Shape & HBR
Unknown shape, 0.1 m
Radar Cross Section
Medium (>0.1 m² and <1 m²)

Expand to show TLE details & history
Last TLE update: 16 hours ago

TLE from 16 hours ago
0 CZ-6A DEB
1 61352U 24140VR  26171.29751836  .00001807  00000-0  71171-3 0  9992
2 61352  88.9969 273.2558 0029021 129.9772 230.3978 14.28564631 93443
Epoch: 2026-06-20T07:08Z
TLE epoch observation values (Epoch: 2026-06-20T07:08:25.586Z)
Latitude
-0.00003°
Longitude
-102.36497°
Altitude
812.91 km
Speed
7.44 km/s
True Right ascension
18h 13m 01s
True Declination
0° 00' 00"
Sunlit
Object was in full shadow at epoch
Visualization orbit readout
Latitude
Unknown
Longitude
Unknown
Altitude
Unknown
Speed
Unknown
Apparent Right ascension
Unknown
Apparent Declination
Unknown
Sunlit
N/A
Visualization observer readout
Local Sidereal Time
10:17:11
Azimuth
Unknown
Elevation
Unknown
Doppler factor
Unknown
Orbital elements
Apogee altitude
814.284 km
Perigee altitude
772.659 km
Semi-major axis
7,171.609 km
Eccentricity
0.0029
Inclination
88.9969°
RAAN
273.2558°
Arg. of periapsis
129.9772°
True anomaly
230.14216°
Mean anomaly
230.3978°
Eccentric anomaly
230.26992°
Mean motion
3.5737 °/min
Orbital period
100.74 mins
BSTAR
0.00071171
Loading maneuver chart data...
Computing Atmospheric mass density...
Loading historical data...
Loading historical data...
Loading historical data...
Loading historical data...
Loading historical data...
Loading historical data...
Loading historical data...

Documentation

Showing up to 5 results
|